[[{"header":{"parameterUnit":"m.s-1","parameterCategory":1,"la1":30.2991,"la2":30.254,"lo1":-89.0895,"lo2":-89.0444,"dy":0.0017,"dx":0.0017,"nx":28,"ny":28,"refTime":"2023-11-21T09:00:00:Z","depth":0,"parameterNumber":2,"parameterNumberName":"U-component_of_WINDS"},"data":[0,0,0,0,0,0,0,0,0,0,0,0,0,0,0,0,0,0,0,0,0,0,0,0,0,0,0,0,0,0,0,0,0,0,0,0,0,0,0,0,0,0,0,0,0,0,0,0,0,0,0,0,0,0,0,0,0,0,-1.7681,-1.7682,0,-1.7701,-1.7701,-1.7701,-1.77,-1.77,-1.7699,-1.7699,-1.7717,-1.7717,-1.7718,0,0,0,0,0,0,0,0,0,0,0,0,0,-1.7642,-1.7643,-1.7681,-1.7682,-1.7682,-1.7701,-1.7701,-1.7701,-1.77,-1.77,-1.7699,-1.7699,-1.7716,-1.7717,-1.7718,0,0,0,0,0,0,0,0,0,0,0,0,0,-1.766,-1.7643,-1.7681,-1.7684,-1.7684,-1.77,-1.7701,-1.7701,-1.77,-1.77,-1.7699,-1.7699,-1.7716,-1.7717,-1.7718,-1.7733,0,0,-1.7721,-1.7722,0,0,0,0,0,0,0,0,-1.7659,-1.7661,-1.7683,-1.7683,-1.7684,-1.7698,-1.7693,-1.7712,-1.77,-1.7694,-1.7699,-1.7699,-1.771,-1.7712,-1.7716,-1.7734,-1.7735,-1.7722,-1.7722,-1.7723,-1.7723,0,0,0,0,0,0,0,-1.7658,-1.766,-1.7689,-1.7683,-1.7684,-1.7683,-1.7685,-1.7697,-1.7704,-1.7694,-1.7694,-1.7697,-1.7711,-1.7715,-1.7717,-1.7735,-1.7722,-1.7722,-1.7723,-1.7724,-1.7765,-1.7766,0,0,0,0,0,0,-1.7656,-1.7659,-1.7688,-1.7689,-1.767,-1.7684,-1.7686,-1.7693,-1.7704,-1.7705,-1.7697,-1.7697,-1.7714,-1.7715,-1.7717,-1.7735,-1.7723,-1.7724,-1.7724,-1.7765,-1.7766,-1.7766,0,0,0,0,0,0,-1.7655,-1.7659,-1.7687,-1.7674,-1.7678,-1.7685,-1.7693,-1.7694,-1.7699,-1.7706,-1.7707,-1.7701,-1.7713,-1.7716,-1.7729,-1.7736,-1.7724,-1.7725,-1.7764,-1.7765,-1.7766,-1.7772,0,0,0,0,0,0,-1.7654,-1.7658,-1.7664,-1.7675,-1.7679,-1.77,-1.7694,-1.7695,-1.7701,-1.7701,-1.771,-1.7711,-1.7713,-1.7728,-1.773,-1.7737,-1.7726,-1.7764,-1.7765,-1.7766,-1.7771,-1.7772,-1.7774,0,0,0,0,0,-1.7653,-1.7665,-1.7665,-1.7668,-1.7687,-1.77,-1.7702,-1.7705,-1.7702,-1.7707,-1.7712,-1.7711,-1.7735,-1.7729,-1.7732,-1.7739,-1.7763,-1.7765,-1.7766,-1.777,-1.7772,-1.7774,0,0,0,0,0,0,-1.7654,-1.7666,-1.7666,-1.7682,-1.769,-1.77,-1.7707,-1.7707,-1.7716,-1.7715,-1.7718,-1.772,-1.7734,-1.7738,-1.7731,-1.7754,-1.7749,-1.775,-1.7751,-1.7753,-1.7754,-1.7753,-1.7727,0,0,0,0,0,-1.7656,-1.7667,-1.7677,-1.7689,-1.7694,-1.77,-1.7706,-1.7708,-1.7716,-1.7719,-1.7725,-1.7732,-1.7742,-1.7748,-1.7757,-1.7772,-1.7773,-1.7778,-1.778,-1.7781,-1.7782,-1.779,-1.7792,-1.777,-1.777,-1.777,0,0,-1.7661,-1.7669,-1.7675,-1.769,-1.7697,-1.7707,-1.7703,-1.7714,-1.7721,-1.772,-1.7734,-1.7738,-1.7747,-1.7761,-1.7768,-1.7765,-1.7789,-1.7782,-1.7783,-1.7784,-1.7792,-1.7794,-1.7796,-1.777,-1.777,-1.777,0,0,-1.7674,-1.7681,-1.7693,-1.77,-1.7711,-1.7715,-1.7718,-1.7727,-1.7731,-1.7744,-1.7744,-1.7753,-1.7769,-1.7775,-1.778,-1.7797,-1.7796,-1.78,-1.7807,-1.7815,-1.7817,-1.7819,-1.7824,-1.7827,-1.7801,-1.7801,-1.7801,0,-1.7678,-1.7695,-1.7699,-1.771,-1.7717,-1.7718,-1.773,-1.7736,-1.7748,-1.7752,-1.7749,-1.777,-1.7776,-1.7792,-1.7796,-1.78,-1.7803,-1.7798,-1.7817,-1.7818,-1.782,-1.7825,-1.7828,-1.7802,-1.7802,-1.7801,-1.7801,0,-1.7699,-1.771,-1.7718,-1.7731,-1.7739,-1.775,-1.7756,-1.7763,-1.7764,-1.7769,-1.7783,-1.779,-1.78,-1.7804,-1.7805,-1.782,-1.7818,-1.7816,-1.781,-1.7822,-1.7828,-1.783,-1.7802,-1.7802,-1.7802,-1.7802,0,0,-1.7713,-1.7729,-1.7732,-1.7738,-1.775,-1.7758,-1.777,-1.7781,-1.7787,-1.7796,-1.7805,-1.7819,-1.7817,-1.7823,-1.7825,-1.7832,-1.7845,-1.7829,-1.7829,-1.7831,-1.7862,-1.7863,-1.7866,-1.7844,-1.7845,-1.7845,-1.7861,0,-1.7727,-1.7749,-1.7753,-1.7771,-1.7782,-1.7783,-1.7793,-1.7801,-1.7806,-1.7815,-1.7819,-1.7829,-1.7826,-1.783,-1.7837,-1.7842,-1.7851,-1.7841,-1.7853,-1.7853,-1.785,-1.7868,-1.787,-1.7884,-1.7863,-1.7863,-1.7864,0,-1.7747,-1.7757,-1.7777,-1.7788,-1.7792,-1.7801,-1.7812,-1.7821,-1.783,-1.7833,-1.784,-1.7841,-1.7853,-1.7847,-1.7863,-1.7856,-1.7861,-1.7864,-1.7865,-1.7865,-1.7859,-1.7869,-1.7889,-1.7891,-1.7867,-1.7867,-1.7866,0,-1.7755,-1.7774,-1.7788,-1.7793,-1.7806,-1.7813,-1.7818,-1.7827,-1.7834,-1.7843,-1.7847,-1.7857,-1.7863,-1.7871,-1.7874,-1.787,-1.789,-1.7884,-1.7892,-1.7892,-1.7896,-1.7895,-1.7916,-1.79,-1.79,-1.7899,-1.7899,0,-1.7771,-1.7782,-1.7792,-1.78,-1.7813,-1.7819,-1.7831,-1.7837,-1.7845,-1.7854,-1.7856,-1.7864,-1.7869,-1.7878,-1.7881,-1.7894,-1.7896,-1.7898,-1.7899,-1.7898,-1.7898,-1.7901,-1.79,-1.79,-1.79,-1.79,-1.79,0,-1.7782,-1.7789,-1.7804,-1.7816,-1.7819,-1.7828,-1.7838,-1.7846,-1.7851,-1.7862,-1.7865,-1.7873,-1.7884,-1.7889,-1.7902,-1.7904,-1.7918,-1.7918,-1.7915,-1.7915,-1.7923,-1.7922,-1.7946,-1.7949,-1.7931,-1.7931,-1.7931,0,-1.7791,-1.78,-1.7813,-1.782,-1.7826,-1.7837,-1.7844,-1.785,-1.7857,-1.7868,-1.7875,-1.7886,-1.7895,-1.7913,-1.7919,-1.7929,-1.7929,-1.7937,-1.793,-1.7929,-1.7929,-1.7928,-1.7929,-1.7938,-1.7938,-1.7938,-1.7938,0,-1.7807,-1.781,-1.7821,-1.7833,-1.7841,-1.7851,-1.786,-1.7865,-1.7872,-1.788,-1.7892,-1.7899,-1.7913,-1.7924,-1.7934,-1.7939,-1.794,-1.794,-1.7942,-1.7941,-1.7939,-1.794,-1.7918,-1.7939,-1.7939,-1.7939,-1.7939,-1.7939,-1.7817,-1.7826,-1.7836,-1.7848,-1.7856,-1.7865,-1.7873,-1.788,-1.789,-1.7902,-1.7905,-1.7917,-1.7926,-1.794,-1.7946,-1.7955,-1.7953,-1.7957,-1.7957,-1.7958,-1.7958,-1.7938,-1.7957,-1.7957,-1.7957,-1.7957,-1.7957,0,-1.7833,-1.784,-1.7851,-1.7865,-1.7874,-1.7875,-1.7885,-1.7893,-1.7904,-1.7913,-1.7922,-1.7935,-1.7946,-1.7953,-1.7964,-1.797,-1.797,-1.7973,-1.7972,-1.7973,-1.796,-1.7957,-1.7972,-1.7972,-1.7972,-1.7972,-1.7972,-1.7972,-1.7842,-1.7857,-1.7861,-1.788,-1.7886,-1.7899,-1.7905,-1.7913,-1.792,-1.7936,-1.7945,-1.795,-1.7958,-1.797,-1.7979,-1.7981,-1.7985,-1.7987,-1.7989,-1.7976,-1.7974,-1.7973,-1.797,-1.7988,-1.7988,-1.8002,-1.8002,-1.8002]},{"header":{"parameterUnit":"m.s-1","parameterCategory":1,"la1":30.2991,"la2":30.254,"lo1":-89.0895,"lo2":-89.0444,"dy":0.0017,"dx":0.0017,"nx":28,"ny":28,"refTime":"2023-11-21T09:00:00:Z","depth":0,"parameterNumber":3,"parameterNumberName":"V-component_of_WINDS"},"data":[0,0,0,0,0,0,0,0,0,0,0,0,0,0,0,0,0,0,0,0,0,0,0,0,0,0,0,0,0,0,0,0,0,0,0,0,0,0,0,0,0,0,0,0,0,0,0,0,0,0,0,0,0,0,0,0,0,0,6.6625,6.6627,0,6.6756,6.6757,6.6759,6.6742,6.674,6.6737,6.6735,6.6862,6.6867,6.6873,0,0,0,0,0,0,0,0,0,0,0,0,0,6.6356,6.6361,6.6625,6.6627,6.6628,6.6756,6.6757,6.6759,6.6742,6.6739,6.6737,6.6734,6.6861,6.6867,6.6873,0,0,0,0,0,0,0,0,0,0,0,0,0,6.6478,6.6363,6.6625,6.6635,6.6638,6.6755,6.6757,6.676,6.6743,6.6739,6.6736,6.6733,6.6858,6.6866,6.6874,6.6988,0,0,6.6899,6.6902,0,0,0,0,0,0,0,0,6.6471,6.6488,6.6632,6.6635,6.6638,6.6729,6.6709,6.6836,6.6743,6.6703,6.6735,6.6732,6.682,6.6831,6.6862,6.6993,6.6999,6.6899,6.6904,6.6908,6.691,0,0,0,0,0,0,0,6.6463,6.6482,6.6677,6.6634,6.6638,6.6632,6.6646,6.6733,6.6777,6.6706,6.6705,6.6721,6.6821,6.6855,6.6865,6.7001,6.6899,6.6906,6.6911,6.6914,6.7235,6.7238,0,0,0,0,0,0,6.6453,6.6476,6.6672,6.668,6.6545,6.664,6.6655,6.6703,6.6776,6.6785,6.6724,6.672,6.6843,6.6856,6.687,6.701,6.6908,6.6915,6.692,6.7231,6.7236,6.724,0,0,0,0,0,0,6.6447,6.647,6.6667,6.6578,6.6603,6.6648,6.6702,6.6707,6.6741,6.679,6.6797,6.675,6.6841,6.6858,6.696,6.7014,6.6919,6.6926,6.7227,6.7233,6.7238,6.7291,0,0,0,0,0,0,6.6439,6.6468,6.6513,6.6579,6.6608,6.6757,6.6705,6.6712,6.6756,6.6752,6.6817,6.6825,6.6839,6.6948,6.6968,6.7024,6.6932,6.7222,6.7229,6.7236,6.7284,6.7297,6.7308,0,0,0,0,0,6.643,6.652,6.6515,6.6539,6.6664,6.676,6.6776,6.6793,6.676,6.6805,6.6837,6.6823,6.7005,6.6958,6.6981,6.704,6.7219,6.7227,6.7235,6.7279,6.7295,6.7308,0,0,0,0,0,0,6.6455,6.6529,6.6524,6.6639,6.6694,6.6757,6.6813,6.6809,6.6872,6.6865,6.6882,6.6897,6.7,6.7029,6.6976,6.7155,6.7107,6.712,6.7132,6.7148,6.716,6.7151,6.6939,0,0,0,0,0,6.6475,6.6548,6.6607,6.6703,6.6731,6.6768,6.681,6.6819,6.6875,6.6897,6.6936,6.699,6.706,6.7105,6.7171,6.7288,6.7303,6.734,6.7352,6.7361,6.7373,6.744,6.7458,6.7267,6.7267,6.7267,0,0,6.6515,6.6564,6.6609,6.671,6.6753,6.6828,6.6787,6.6867,6.6923,6.6909,6.7009,6.7039,6.71,6.7211,6.7261,6.7238,6.7429,6.7372,6.7379,6.7386,6.745,6.7468,6.7484,6.7273,6.7272,6.7271,0,0,6.6627,6.6671,6.6758,6.6803,6.6871,6.6895,6.6916,6.6981,6.7002,6.7103,6.7095,6.716,6.7279,6.7324,6.7363,6.7496,6.7486,6.7516,6.758,6.7645,6.766,6.7674,6.7724,6.7741,6.7527,6.7527,6.7528,0,6.6668,6.6783,6.6802,6.6885,6.693,6.6924,6.7012,6.7054,6.7139,6.717,6.7143,6.7296,6.7336,6.7458,6.7492,6.7522,6.7546,6.751,6.7657,6.7671,6.7683,6.7731,6.775,6.7531,6.7531,6.753,6.753,0,6.6831,6.691,6.6971,6.7058,6.711,6.7194,6.7226,6.7276,6.7281,6.7308,6.7412,6.746,6.7538,6.7568,6.7571,6.7692,6.7676,6.7653,6.7606,6.7705,6.775,6.7769,6.7536,6.7535,6.7534,6.7533,0,0,6.6961,6.7061,6.7083,6.7124,6.72,6.7261,6.7345,6.7425,6.7469,6.7527,6.76,6.7702,6.7683,6.7726,6.7735,6.7792,6.7898,6.7763,6.7764,6.7789,6.8037,6.8056,6.8076,6.7892,6.7895,6.7898,6.8033,0,6.7083,6.7236,6.7258,6.7392,6.7467,6.7464,6.7538,6.7592,6.762,6.7687,6.7716,6.779,6.7757,6.7785,6.784,6.7874,6.7949,6.7864,6.7959,6.7962,6.7947,6.81,6.8119,6.8244,6.805,6.8053,6.8056,0,6.7245,6.7314,6.7457,6.7527,6.7559,6.7625,6.7702,6.7765,6.7827,6.7843,6.7894,6.7897,6.7984,6.7933,6.8054,6.7996,6.8036,6.8058,6.8063,6.8074,6.8016,6.8117,6.8284,6.8303,6.8083,6.8081,6.8079,0,6.733,6.7457,6.7561,6.7595,6.7678,6.7725,6.7761,6.782,6.7868,6.7933,6.7965,6.8038,6.8079,6.8136,6.8159,6.8118,6.828,6.8229,6.8296,6.8296,6.8331,6.8329,6.8509,6.8353,6.8353,6.8353,6.8352,0,6.7465,6.7553,6.7601,6.7664,6.7764,6.7787,6.7884,6.7918,6.7971,6.8041,6.8041,6.8106,6.8132,6.8201,6.8218,6.8318,6.8335,6.8351,6.8355,6.8353,6.8351,6.838,6.8373,6.8358,6.8357,6.8356,6.8355,0,6.7577,6.7612,6.7725,6.7796,6.7815,6.7886,6.7945,6.8007,6.8035,6.8124,6.8146,6.8189,6.8271,6.83,6.8397,6.8409,6.8526,6.8521,6.8507,6.8508,6.8575,6.8569,6.8781,6.8811,6.8634,6.8635,6.8637,0,6.7661,6.773,6.781,6.7859,6.7898,6.7975,6.8025,6.805,6.8102,6.818,6.8232,6.8314,6.8382,6.8512,6.8552,6.8627,6.8626,6.8695,6.8637,6.8633,6.863,6.8627,6.8635,6.8706,6.8708,6.871,6.8711,0,6.7809,6.7824,6.7898,6.7979,6.804,6.8103,6.8165,6.8204,6.8239,6.8297,6.8383,6.8435,6.8538,6.862,6.8698,6.8733,6.8729,6.8729,6.8749,6.8748,6.8738,6.8747,6.8539,6.8724,6.8723,6.8722,6.8721,6.872,6.7912,6.7975,6.8042,6.8124,6.8175,6.8233,6.8296,6.8334,6.8407,6.8495,6.8505,6.8598,6.8659,6.8765,6.8804,6.8876,6.8857,6.8885,6.8893,6.89,6.8907,6.8725,6.889,6.889,6.8889,6.8889,6.8889,0,6.8062,6.8106,6.8182,6.8271,6.8337,6.8329,6.8398,6.8453,6.8536,6.8595,6.8663,6.8763,6.8843,6.889,6.8971,6.902,6.902,6.904,6.9038,6.9047,6.8918,6.8894,6.9039,6.9039,6.9039,6.9039,6.9039,6.9039,6.8148,6.8255,6.8279,6.8411,6.8453,6.8547,6.8588,6.8642,6.869,6.8803,6.8871,6.8903,6.8958,6.9043,6.9116,6.9128,6.9158,6.9181,6.9191,6.907,6.9055,6.904,6.9018,6.9187,6.9187,6.9315,6.9316,6.9317]}]]